Regional Weather Roundup
Issued by NWS

Home | Current Version | Previous Version | Text Only | Print | Product List | Glossary Off
Versions: 1 2 3 4 5 6 7 8 9 10 11 12 13 14 15 16 17 18 19 20 21 22 23 24 25 26 27 28 29 30 31 32 33 34 35 36 37 38 39 40 41 42 43 44 45 46 47 48 49 50

000
ASUS45 KCYS 061610
RWRWY

WYOMING REGIONAL WEATHER ROUNDUP
NATIONAL WEATHER SERVICE CHEYENNE WY
1000 AM MDT MON JUL 06 2015

NOTE:  "FAIR" INDICATES FEW OR NO CLOUDS BELOW 12,000 FEET
WITH NO SIGNIFICANT WEATHER AND/OR OBSTRUCTIONS TO VISIBILITY.

WYZ001-061700-
YELLOWSTONE NATIONAL PARK

CITY           SKY/WX    TMP DP  RH WIND       PRES   REMARKS
LK YELLOWSTONE   N/A     54  48  80 E5        30.39S
W YELLOWSTONE  NOT AVBL

$$
WYZ002>013-054>058-071-098>099-061700-
NORTHERN WYOMING

CITY           SKY/WX    TMP DP  RH WIND       PRES   REMARKS
JACKSON        PTSUNNY   55  55 100 VRB5      30.32R
CODY           CLOUDY    55  50  82 CALM      30.31R
GREYBULL       CLOUDY    60  50  69 CALM      30.26S
WORLAND        CLOUDY    59  52  77 N3        30.28R HAZE
SHERIDAN       CLOUDY    55  52  89 E5        30.29S FOG
BUFFALO        FOG       53  52  96 E5        30.32R VSB 3/4
GILLETTE       CLOUDY    57  50  77 E6        30.29R
HULETT         CLOUDY    55  52  88 NE6       30.30S
NEWCASTLE      FAIR      61  46  59 E5        30.27S

$$
WYZ014>020-022>026-101>103-061700-
CENTRAL WYOMING

CITY           SKY/WX    TMP DP  RH WIND       PRES   REMARKS
BIG PINEY      PTSUNNY   61  47  59 SE7       30.34R
PINEDALE       CLOUDY    59  52  77 S6        30.35S
DUBOIS         CLOUDY    54  50  87 SE10      30.35R
LANDER         CLOUDY    56  53  90 NE6       30.30S FOG
RIVERTON       CLOUDY    57  53  86 E3        30.31S
CASPER         CLOUDY    55  52  89 E5        30.31S FOG
DOUGLAS        CLOUDY    56  54  93 N5        30.31S FOG

$$
WYZ021-027>030-104>119-061700-
SOUTHERN WYOMING

CITY           SKY/WX    TMP DP  RH WIND       PRES   REMARKS
EVANSTON       FAIR      62  55  77 E12       30.32S
KEMMERER       CLOUDY    61  52  72 E9        30.35S
FORT BRIDGER   CLOUDY    61  59  94 S6        30.36R
ROCK SPRINGS   PTSUNNY   62  53  72 E10       30.33S
DIXON          FAIR      64  55  70 CALM      30.32S
RAWLINS        CLOUDY    57  52  83 NE6       30.35R
SARATOGA       CLOUDY    59  54  82 NW7       30.34S
LARAMIE        LGT RAIN  54  51  90 N6        30.34R
CHEYENNE       LGT RAIN  55  54  96 NE12      30.30S FOG
TORRINGTON     CLOUDY    60  54  80 NE7       30.25R HAZE
PINE BLUFFS    CLOUDY    54  54 100 N13G20    30.28R FOG

$$



USA.gov is the U.S. government's official web portal to all federal, state and local government web resources and services.